CZ-3B DEB, 40193

Orbit data source: Space-Track

CZ-3B DEB, 40193 is space debris in HEO originally from a launch on Mon, 19 Dec 2011 UTC launched from the Xichang Space Center, China (XSC). Debris objects in space refer to the collection of defunct objects orbiting the Earth. Examples of debris include non-operational satellites, rocket bodies, and fragments generated from explosions, collisions, or faulty payload assembly.

Loading next visibility...
Identifier
40193, 2011-077S
Orbit
HEO
Country
Flag of CNCN / PRC
Related business
Manufacturer
CALT
Mission
Spacecraft
Bus & Motor
Unknown
Mass
Unknown
Launch date (UTC)
2011-12-19 (14 years ago)
Launch vehicle
Unknown
Launch site
Xichang Space Center, China (XSC)
Object type
Payload
Rocket body
Debris
Shape & HBR
Unknown
Radar Cross Section
Medium (>0.1 m² and <1 m²)

Expand to show TLE details & history
Last TLE update: 1 week ago

TLE from 1 week ago
0 CZ-3B DEB
1 40193U 11077S   25252.37637520 -.00000164  00000-0 -31605-2 0  9992
2 40193  26.0848 102.9333 7383066 215.9984  58.6584  1.86771815 70916
Epoch: 2025-09-09T09:01Z
TLE epoch observation values (Epoch: 2025-09-09T09:01:58.817Z)
Latitude
-0.00013°
Longitude
-21.15146°
Altitude
25,061.127 km
Speed
3.323 km/s
True Right ascension
06h 52m 02s
True Declination
0° 00' 00"
Sunlit
Object was in daylight at epoch
Visualization orbit readout
Latitude
Unknown
Longitude
Unknown
Altitude
Unknown
Speed
Unknown
Apparent Right ascension
Unknown
Apparent Declination
Unknown
Sunlit
N/A
Visualization observer readout
Local Sidereal Time
17:39:00
Azimuth
Unknown
Elevation
Unknown
Doppler factor
Unknown
Orbital elements
Apogee altitude
42,044.078 km
Perigee altitude
911.586 km
Semi-major axis
27,855.969 km
Eccentricity
0.73831
Inclination
26.0848°
RAAN
102.9333°
Arg. of periapsis
215.9984°
True anomaly
144.10018°
Mean anomaly
58.6584°
Eccentric anomaly
100.28106°
Mean motion
0.46684 °/min
Orbital period
771.15 mins
BSTAR
-0.0031605
Loading maneuver chart data...
Computing Atmospheric mass density...
Loading historical data...
Loading historical data...
Loading historical data...
Loading historical data...
Loading historical data...
Loading historical data...
Loading historical data...

Documentation

Showing up to 5 results
|